Showing default

TIROS 3, 162

Orbit data source: Space-Track

TIROS 3, 162 is a payload satellite owned by GSFC (US) in LEO that was launched on Wed, 12 Jul 1961 UTC via a THOR DELTA launch vehicle from the Air Force Eastern Test Range (AFETR). Payload-class satellites include a variety of spacecraft equipped with specific instruments for various scientific and technological missions. These include communications satellites like Starlink; space stations such as the ISS; scientific satellites like the Hubble; Earth observation satellites from companies like Planet Labs, Umbra, and HawkEye 360; GPS; miniature CubeSats for education and research; and military/defense satellites.

Loading next visibility...
Identifier
162, 1961-017A
Orbit
LEO
Country
Flag of USUS
Related business
Manufacturer
RCA/East Windsor
Mission
Non-operational spacecraft
Bus & Motor
TIROS, Unknown motor
Mass
129 kg wet, 129 kg dry
Launch date (UTC)
1961-07-12 (64 years ago)
Launch vehicle
THOR DELTA
Launch site
Air Force Eastern Test Range (AFETR)
Object type
Payload
Rocket body
Debris
Shape & HBR
Unknown
Radar Cross Section
Medium (>0.1 m² and <1 m²)

Expand to show TLE details & history
Last TLE update: 18 hours ago

TLE from 18 hours ago
0 TIROS 3
1   162U 61017A   25342.85643682  .00000200  00000-0  10168-3 0  9993
2   162  47.8971 154.6144 0044250 249.7879 109.8252 14.45290639364242
Epoch: 2025-12-08T20:33Z
TLE epoch observation values (Epoch: 2025-12-08T20:33:16.141Z)
Latitude
-0.00004°
Longitude
128.44764°
Altitude
752.188 km
Speed
7.474 km/s
True Right ascension
10h 18m 27s
True Declination
0° 00' 00"
Sunlit
Object was in daylight at epoch
Visualization orbit readout
Latitude
Unknown
Longitude
Unknown
Altitude
Unknown
Speed
Unknown
Apparent Right ascension
Unknown
Apparent Declination
Unknown
Sunlit
N/A
Visualization observer readout
Local Sidereal Time
12:42:52
Azimuth
Unknown
Elevation
Unknown
Doppler factor
Unknown
Orbital elements
Apogee altitude
773.662 km
Perigee altitude
710.647 km
Semi-major axis
7,120.291 km
Eccentricity
0.00443
Inclination
47.8971°
RAAN
154.6144°
Arg. of periapsis
249.7879°
True anomaly
110.30132°
Mean anomaly
109.8252°
Eccentric anomaly
110.06335°
Mean motion
3.61241 °/min
Orbital period
99.66 mins
BSTAR
0.00010168
Loading maneuver chart data...
Computing Atmospheric mass density...
Loading historical data...
Loading historical data...
Loading historical data...
Loading historical data...
Loading historical data...
Loading historical data...
Loading historical data...
Other satellites on launch #17 in the year 1961 (1961-07-12 UTC)

Documentation

Showing up to 5 results
|